Tracking 19489 objects as of 22-Jan-2019
HD Live streaming from Space Station
objects crossing your sky now

RADUGA 1M-1

Track RADUGA 1M-1 now!
RADUGA 1M-1 is classified as:


NORAD ID: 32373
Int'l Code: 2007-058A
Perigee: 36,015.4 km
Apogee: 36,063.7 km
Inclination: 4.3 °
Period: 1,448.7 minutes
Semi major axis: 42410 km
RCS: 33.55 m2 (large)
Launch date: December 9, 2007
Source: Commonwealth of Independent States (former USSR) (CIS)
Launch site: TYURATAM MISSILE AND SPACE COMPLEX (TTMTR)

Military communication
aabbcc
Your satellite tracking list
Your tracking list is empty




NASA's NSSDC Master Catalog

Two Line Element Set (TLE):
1 32373U 07058A   19022.02410344 -.00000323  00000-0  00000+0 0  9998
2 32373   4.2577  71.1192 0005694 244.1689 319.4659  0.99401194 41441
Source of the keplerian elements: AFSPC